When you browse on this site, cookies collect data to enhance your experience and personalize the content and advertising you see.
Visit our Privacy Policy to learn more. By continuing to use the site, you agree to this use of cookies and data.
  • In Lithuania
  • List of Countries
  • For 7 days
  • Water Temperature
  • Satellite Maps
  • Weather Map
  • Weather Widgets
  • user-avatar
    Login

    Hourly Weather Stupino

    Today, 17 July, Wednesday

    Time Temperature Precipitation Wind Pressure Humidity
    00:00 +21°C° 0.1 mm 2 mps 755 mmHg 77%
    01:00 +20°C° 0 mm 3 mps 755 mmHg 78%
    02:00 +20°C° 0 mm 3 mps 755 mmHg 78%
    03:00 +20°C° 0 mm 3 mps 755 mmHg 79%
    04:00 +21°C° 0 mm 3 mps 755 mmHg 79%
    05:00 +21°C° 0 mm 3 mps 755 mmHg 79%
    06:00 +21°C° 0 mm 4 mps 755 mmHg 79%
    07:00 +22°C° 0 mm 4 mps 754 mmHg 73%
    08:00 +25°C° 0 mm 4 mps 754 mmHg 67%
    09:00 +26°C° 0 mm 5 mps 754 mmHg 61%
    10:00 +27°C° 0 mm 5 mps 754 mmHg 57%
    11:00 +28°C° 0 mm 5 mps 754 mmHg 52%
    12:00 +29°C° 0 mm 6 mps 754 mmHg 47%
    13:00 +29°C° 0 mm 6 mps 754 mmHg 48%
    14:00 +29°C° 0 mm 6 mps 754 mmHg 49%
    15:00 +29°C° 0 mm 6 mps 754 mmHg 50%
    16:00 +29°C° 0 mm 6 mps 754 mmHg 52%
    17:00 +28°C° 0 mm 5 mps 754 mmHg 53%
    18:00 +28°C° 0 mm 4 mps 754 mmHg 54%
    19:00 +27°C° 0 mm 3 mps 755 mmHg 59%
    20:00 +25°C° 0 mm 2 mps 755 mmHg 64%
    21:00 +24°C° 0 mm 1 mps 755 mmHg 69%
    22:00 +24°C° 0 mm 1 mps 755 mmHg 69%
    23:00 +23°C° 0 mm 1 mps 755 mmHg 69%

    Tomorrow, 18 July, Thursday

    Time Temperature Precipitation Wind Pressure Humidity
    00:00 +23°C° 0 mm 1 mps 755 mmHg 69%
    01:00 +23°C° 0 mm 2 mps 755 mmHg 71%
    02:00 +21°C° 0 mm 2 mps 755 mmHg 72%
    03:00 +21°C° 0 mm 2 mps 756 mmHg 73%
    04:00 +21°C° 0 mm 2 mps 756 mmHg 72%
    05:00 +23°C° 0 mm 2 mps 756 mmHg 70%
    06:00 +23°C° 0 mm 1 mps 756 mmHg 68%
    07:00 +25°C° 0 mm 1 mps 756 mmHg 62%
    08:00 +26°C° 0 mm 1 mps 756 mmHg 56%
    09:00 +28°C° 0 mm 1 mps 756 mmHg 49%
    10:00 +29°C° 0 mm 2 mps 756 mmHg 45%
    11:00 +30°C° 0 mm 2 mps 756 mmHg 41%
    12:00 +31°C° 0 mm 3 mps 756 mmHg 36%
    13:00 +33°C° 0 mm 3 mps 756 mmHg 34%
    14:00 +33°C° 0 mm 3 mps 755 mmHg 33%
    15:00 +34°C° 0 mm 3 mps 755 mmHg 31%
    16:00 +33°C° 0 mm 3 mps 755 mmHg 32%
    17:00 +33°C° 0 mm 3 mps 755 mmHg 33%
    18:00 +33°C° 0 mm 3 mps 755 mmHg 35%
    19:00 +30°C° 0 mm 3 mps 756 mmHg 38%
    20:00 +29°C° 0 mm 3 mps 756 mmHg 41%
    21:00 +27°C° 0 mm 2 mps 756 mmHg 44%
    22:00 +27°C° 0 mm 3 mps 757 mmHg 45%
    23:00 +26°C° 0 mm 3 mps 757 mmHg 46%

    Day after tomorrow, 19 July, Friday

    Time Temperature Precipitation Wind Pressure Humidity
    00:00 +26°C° 0 mm 3 mps 757 mmHg 46%
    01:00 +25°C° 0 mm 3 mps 757 mmHg 49%
    02:00 +25°C° 0 mm 3 mps 757 mmHg 52%
    03:00 +25°C° 0 mm 3 mps 757 mmHg 54%
    04:00 +25°C° 0 mm 3 mps 757 mmHg 55%
    05:00 +25°C° 0 mm 3 mps 758 mmHg 55%
    06:00 +25°C° 0 mm 3 mps 758 mmHg 55%
    07:00 +26°C° 0 mm 3 mps 758 mmHg 51%
    08:00 +28°C° 0 mm 3 mps 759 mmHg 46%
    09:00 +29°C° 0 mm 2 mps 759 mmHg 42%
    10:00 +29°C° 0 mm 3 mps 759 mmHg 42%
    11:00 +29°C° 0 mm 4 mps 759 mmHg 43%
    12:00 +29°C° 0 mm 4 mps 759 mmHg 43%
    13:00 +29°C° 0 mm 4 mps 759 mmHg 42%
    14:00 +29°C° 0 mm 4 mps 759 mmHg 42%
    15:00 +29°C° 0 mm 4 mps 759 mmHg 41%
    16:00 +29°C° 0 mm 3 mps 759 mmHg 41%
    17:00 +29°C° 0 mm 2 mps 759 mmHg 40%
    18:00 +30°C° 0 mm 2 mps 759 mmHg 40%
    19:00 +28°C° 0 mm 2 mps 759 mmHg 43%
    20:00 +27°C° 0 mm 3 mps 759 mmHg 47%
    21:00 +26°C° 0 mm 3 mps 760 mmHg 50%
    22:00 +25°C° 0 mm 3 mps 760 mmHg 51%
    23:00 +25°C° 0 mm 3 mps 760 mmHg 52%

    20 July, Saturday

    Time Temperature Precipitation Wind Pressure Humidity
    00:00 +24°C° 0 mm 2 mps 760 mmHg 53%
    01:00 +24°C° 0 mm 2 mps 760 mmHg 54%
    02:00 +24°C° 0 mm 2 mps 761 mmHg 56%
    03:00 +24°C° 0 mm 2 mps 761 mmHg 57%
    04:00 +24°C° 0 mm 1 mps 761 mmHg 56%
    05:00 +24°C° 0 mm 1 mps 761 mmHg 56%
    06:00 +25°C° 0 mm 1 mps 761 mmHg 55%
    07:00 +27°C° 0 mm 1 mps 761 mmHg 50%
    08:00 +28°C° 0 mm 1 mps 762 mmHg 45%
    09:00 +30°C° 0 mm 1 mps 762 mmHg 39%
    10:00 +31°C° 0 mm 2 mps 762 mmHg 37%
    11:00 +32°C° 0 mm 2 mps 762 mmHg 34%
    12:00 +33°C° 0 mm 3 mps 762 mmHg 31%
    13:00 +34°C° 0 mm 3 mps 762 mmHg 31%
    14:00 +34°C° 0 mm 3 mps 762 mmHg 30%
    15:00 +34°C° 0 mm 3 mps 762 mmHg 30%
    16:00 +34°C° 0 mm 3 mps 762 mmHg 30%
    17:00 +33°C° 0 mm 3 mps 762 mmHg 30%
    18:00 +33°C° 0 mm 3 mps 762 mmHg 30%
    19:00 +30°C° 0 mm 3 mps 762 mmHg 33%
    20:00 +28°C° 0 mm 3 mps 762 mmHg 36%
    21:00 +27°C° 0 mm 2 mps 762 mmHg 38%
    22:00 +26°C° 0 mm 2 mps 763 mmHg 39%
    23:00 +26°C° 0 mm 2 mps 763 mmHg 40%

    21 July, Sunday

    Time Temperature Precipitation Wind Pressure Humidity
    00:00 +25°C° 0 mm 3 mps 763 mmHg 41%
    01:00 +25°C° 0 mm 3 mps 763 mmHg 43%
    02:00 +24°C° 0 mm 3 mps 763 mmHg 44%
    03:00 +24°C° 0 mm 3 mps 763 mmHg 46%
    04:00 +24°C° 0 mm 3 mps 763 mmHg 47%
    05:00 +24°C° 0 mm 3 mps 763 mmHg 47%
    06:00 +25°C° 0 mm 2 mps 763 mmHg 47%
    07:00 +27°C° 0 mm 2 mps 763 mmHg 43%
    08:00 +28°C° 0 mm 2 mps 763 mmHg 38%
    09:00 +30°C° 0 mm 2 mps 763 mmHg 34%
    10:00 +31°C° 0 mm 2 mps 763 mmHg 32%
    11:00 +32°C° 0 mm 1 mps 763 mmHg 29%
    12:00 +31°C° 0 mm 0 mps 762 mmHg 27%
    13:00 +34°C° 0 mm 1 mps 762 mmHg 27%
    14:00 +34°C° 0 mm 1 mps 762 mmHg 26%
    15:00 +34°C° 0 mm 1 mps 761 mmHg 26%
    16:00 +34°C° 0 mm 1 mps 761 mmHg 27%
    17:00 +35°C° 0 mm 2 mps 761 mmHg 27%
    18:00 +34°C° 0 mm 2 mps 761 mmHg 28%
    19:00 +32°C° 0 mm 2 mps 761 mmHg 30%
    20:00 +31°C° 0 mm 2 mps 761 mmHg 32%
    21:00 +30°C° 0 mm 2 mps 761 mmHg 33%
    22:00 +28°C° 0.1 mm 3 mps 761 mmHg 43%
    23:00 +27°C° 0.1 mm 4 mps 761 mmHg 52%

    22 July, Monday

    Time Temperature Precipitation Wind Pressure Humidity
    00:00 +25°C° 0.1 mm 5 mps 761 mmHg 62%
    01:00 +23°C° 0.2 mm 5 mps 761 mmHg 68%
    02:00 +23°C° 0.2 mm 5 mps 761 mmHg 74%
    03:00 +22°C° 0.2 mm 5 mps 762 mmHg 80%
    04:00 +22°C° 0.1 mm 4 mps 762 mmHg 78%
    05:00 +22°C° 0.1 mm 3 mps 761 mmHg 77%
    06:00 +23°C° 0.1 mm 2 mps 761 mmHg 75%
    07:00 +25°C° 0 mm 2 mps 761 mmHg 67%
    08:00 +26°C° 0 mm 2 mps 761 mmHg 60%
    09:00 +27°C° 0 mm 2 mps 761 mmHg 53%
    10:00 +29°C° 0 mm 2 mps 761 mmHg 48%
    11:00 +30°C° 0 mm 2 mps 761 mmHg 44%
    12:00 +31°C° 0 mm 2 mps 761 mmHg 39%
    13:00 +33°C° 0 mm 3 mps 760 mmHg 38%
    14:00 +33°C° 0 mm 3 mps 760 mmHg 38%
    15:00 +33°C° 0 mm 4 mps 760 mmHg 37%
    16:00 +32°C° 0 mm 4 mps 760 mmHg 40%
    17:00 +30°C° 0 mm 4 mps 759 mmHg 44%
    18:00 +29°C° 0 mm 5 mps 759 mmHg 48%
    19:00 +28°C° 0 mm 4 mps 760 mmHg 50%
    20:00 +27°C° 0 mm 3 mps 760 mmHg 53%
    21:00 +26°C° 0 mm 2 mps 760 mmHg 55%
    22:00 +26°C° 0 mm 2 mps 760 mmHg 55%
    23:00 +25°C° 0 mm 2 mps 760 mmHg 55%
    Show more